TimePDT,TemperatureF,Dew PointF,Humidity,Sea Level PressureIn,VisibilityMPH,Wind Direction,Wind SpeedMPH,Gust SpeedMPH,PrecipitationIn,Events,Conditions,WindDirDegrees,DateUTC
12:15 AM,82.4,62.6,51,29.79,10.0,NE,5.8,-,N/A,,Clear,50,2013-08-20 07:15:00
12:35 AM,82.4,62.6,51,29.76,10.0,North,10.4,-,N/A,,Clear,10,2013-08-20 07:35:00
12:55 AM,82.4,62.6,51,29.78,10.0,North,6.9,-,N/A,,Clear,10,2013-08-20 07:55:00
1:15 AM,82.4,57.2,42,29.77,10.0,North,-9999.0,-,N/A,,Clear,0,2013-08-20 08:15:00
1:35 AM,82.4,57.2,42,29.76,10.0,NNW,5.8,-,N/A,,Clear,340,2013-08-20 08:35:00
1:55 AM,80.6,57.2,45,29.77,10.0,North,4.6,-,N/A,,Clear,10,2013-08-20 08:55:00
2:15 AM,78.8,57.2,47,29.78,10.0,North,-9999.0,-,N/A,,Clear,0,2013-08-20 09:15:00
2:35 AM,77.0,60.8,57,29.78,10.0,North,5.8,-,N/A,,Clear,350,2013-08-20 09:35:00
2:55 AM,75.2,60.8,61,29.78,10.0,North,6.9,-,N/A,,Clear,360,2013-08-20 09:55:00
3:15 AM,75.2,60.8,61,29.77,10.0,North,5.8,-,N/A,,Clear,10,2013-08-20 10:15:00
3:35 AM,75.2,57.2,53,29.78,10.0,North,6.9,-,N/A,,Clear,360,2013-08-20 10:35:00
3:55 AM,75.2,57.2,53,29.78,10.0,NNW,4.6,-,N/A,,Clear,330,2013-08-20 10:55:00
4:15 AM,75.2,55.4,50,29.78,10.0,NW,6.9,-,N/A,,Clear,320,2013-08-20 11:15:00
4:35 AM,75.2,55.4,50,29.79,10.0,NW,6.9,-,N/A,,Clear,320,2013-08-20 11:35:00
4:55 AM,75.2,57.2,53,29.79,10.0,NW,8.1,-,N/A,,Clear,310,2013-08-20 11:55:00
5:15 AM,73.4,57.2,57,29.79,10.0,NNW,5.8,-,N/A,,Clear,330,2013-08-20 12:15:00
5:35 AM,71.6,57.2,60,29.80,10.0,NW,8.1,-,N/A,,Clear,310,2013-08-20 12:35:00
5:55 AM,71.6,57.2,60,29.80,10.0,NNW,6.9,-,N/A,,Clear,330,2013-08-20 12:55:00
6:15 AM,71.6,57.2,60,29.81,10.0,NNW,4.6,-,N/A,,Clear,330,2013-08-20 13:15:00
6:35 AM,71.6,57.2,60,29.81,9.0,NNW,3.5,-,N/A,,Clear,330,2013-08-20 13:35:00
6:45 AM,71.6,57.2,60,29.82,7.0,Variable,3.5,-,N/A,,Clear,0,2013-08-20 13:45:00
6:55 AM,71.6,57.2,60,29.82,7.0,NW,3.5,-,N/A,,Clear,320,2013-08-20 13:55:00
7:45 AM,73.4,55.4,53,29.83,10.0,NNW,6.9,-,N/A,,Clear,330,2013-08-20 14:45:00
8:45 AM,78.8,55.4,44,29.84,10.0,NNW,8.1,-,N/A,,Clear,330,2013-08-20 15:45:00
9:45 AM,84.2,55.4,37,29.84,10.0,North,6.9,-,N/A,,Clear,360,2013-08-20 16:45:00
10:45 AM,87.8,55.4,33,29.84,10.0,NNW,6.9,-,N/A,,Clear,340,2013-08-20 17:45:00
11:45 AM,91.4,55.4,29,29.84,10.0,NW,6.9,-,N/A,,Clear,310,2013-08-20 18:45:00
12:45 PM,95.0,55.4,26,29.81,10.0,North,5.8,-,N/A,,Clear,360,2013-08-20 19:45:00
1:45 PM,98.6,55.4,24,29.80,10.0,NW,5.8,-,N/A,,Clear,310,2013-08-20 20:45:00
2:45 PM,98.6,55.4,24,29.78,10.0,NW,5.8,-,N/A,,Clear,310,2013-08-20 21:45:00
3:45 PM,98.6,55.4,24,29.76,10.0,NNW,9.2,-,N/A,,Clear,340,2013-08-20 22:45:00
4:45 PM,98.6,57.2,25,-9999,10.0,NNW,11.5,17.3,N/A,,Clear,330,2013-08-20 23:45:00
5:45 PM,96.8,55.4,25,29.74,10.0,NNW,12.7,-,N/A,,Clear,340,2013-08-21 00:45:00
6:45 PM,93.2,57.2,30,29.74,10.0,NNW,12.7,-,N/A,,Clear,340,2013-08-21 01:45:00
7:45 PM,87.8,57.2,35,29.75,10.0,NW,9.2,-,N/A,,Clear,320,2013-08-21 02:45:00
8:45 PM,80.6,59.0,48,29.77,10.0,NW,9.2,-,N/A,,Clear,320,2013-08-21 03:45:00
9:15 PM,80.6,57.2,45,29.78,10.0,NW,8.1,-,N/A,,Clear,310,2013-08-21 04:15:00
9:35 PM,80.6,57.2,45,29.79,10.0,NNW,8.1,-,N/A,,Clear,340,2013-08-21 04:35:00
9:55 PM,80.6,57.2,45,29.80,10.0,NNW,8.1,-,N/A,,Clear,340,2013-08-21 04:55:00
10:15 PM,78.8,55.4,44,29.80,10.0,North,8.1,-,N/A,,Clear,360,2013-08-21 05:15:00
10:35 PM,78.8,53.6,42,29.81,10.0,NNW,8.1,-,N/A,,Clear,340,2013-08-21 05:35:00
10:55 PM,75.2,53.6,47,29.81,10.0,North,5.8,-,N/A,,Clear,350,2013-08-21 05:55:00
11:15 PM,75.2,53.6,47,29.81,10.0,North,6.9,-,N/A,,Clear,350,2013-08-21 06:15:00
11:35 PM,73.4,53.6,50,29.81,10.0,North,5.8,-,N/A,,Clear,10,2013-08-21 06:35:00
11:55 PM,73.4,51.8,47,29.81,10.0,North,-9999.0,-,N/A,,Clear,0,2013-08-21 06:55:00